Quillayute, WA

12:57 AM PST on December 14, 2017 (GMT -0800)
Quillayute

Weather History for KUIL - February, 2013

Change the Weather History Date:

Thursday, February 7, 2013

  Actual Average Record
Temperature  
Mean Temperature 39 °F 42 °F  
Max Temperature 47 °F 49 °F 62 °F (1968)
Min Temperature 31 °F 35 °F 17 °F (1989)
Degree Days  
Heating Degree Days 26 23  
Month to date heating degree days 145 161  
Since 1 July heating degree days 3253 3366  
Cooling Degree Days 0 0  
Month to date cooling degree days 0 0  
Year to date cooling degree days 0 0  
Moisture  
Dew Point 35 °F    
Average Humidity 81    
Maximum Humidity 92    
Minimum Humidity 70    
Precipitation  
Precipitation 0.14 in 0.38 in 1.35 in (1996)
Month to date precipitation 2.01 2.72  
Year to date precipitation 12.35 17.33  
Sea Level Pressure  
Sea Level Pressure 30.01 in    
Wind  
Wind Speed 3 mph (SSE)    
Max Wind Speed 23 mph    
Max Gust Speed 33 mph    
Visibility 3 miles    
Events Fog , Rain    
T = Trace of Precipitation, MM = Missing Value Source: NWS Daily Summary

Daily Weather History Graph

Daily Weather History Graph

Search for Another Location

Airport or City:

Trip Planner

Search our weather history database for the weather conditions in past years. The results will help you decide how hot, cold, wet, or windy it might be!

Date:

Astronomy

Feb. 07, 2013 Rise Set
Actual Time 7:36 AM PST 5:28 PM PST
Civil Twilight 7:04 AM PST 6:01 PM PST
Nautical Twilight 6:27 AM PST 6:38 PM PST
Astronomical Twilight 5:51 AM PST 7:14 PM PST
Moon 5:28 AM PST (2/7) 2:53 PM PST (2/7)
Length of Visible Light 10h 57m
Length of Day
9h 52m
Waning Crescent, 8% of the Moon is Illuminated
Feb 7
Waning Crescent
Feb 9
New
Feb 17
First Quarter
Feb 25
Full
Mar 4
Last Quarter

Hourly Weather History & Observations

Time (PST) Temp. Windchill Dew Point Humidity Pressure Visibility Wind Dir Wind Speed Gust Speed Precip Events Conditions
12:19 AM 42.8 °F 36.2 °F 37.4 °F 81% 29.68 in 6.0 mi SSE 12.7 mph 19.6 mph N/A   Haze
12:53 AM 43.0 °F 35.7 °F 37.9 °F 82% 29.68 in 6.0 mi SSE 15.0 mph 33.4 mph 0.01 in   Haze
1:00 AM 42.8 °F 34.8 °F 37.4 °F 81% 29.67 in 6.0 mi SE 17.3 mph 27.6 mph N/A   Haze
1:14 AM 42.8 °F 35.8 °F 37.4 °F 81% 29.67 in 4.0 mi SSE 13.8 mph 29.9 mph 0.00 in Rain Light Rain
1:24 AM 42.8 °F 37.0 °F 39.2 °F 87% 29.68 in 1.8 mi SSE 10.4 mph 26.5 mph 0.01 in Rain Rain
1:35 AM 42.8 °F 35.8 °F 39.2 °F 87% 29.68 in 3.0 mi SSE 13.8 mph 26.5 mph 0.03 in Rain Light Rain
1:53 AM 44.1 °F 37.7 °F 39.9 °F 85% 29.69 in 3.0 mi SSW 12.7 mph 26.5 mph 0.03 in Rain Light Rain
1:58 AM 44.6 °F 36.6 °F 39.2 °F 81% 29.69 in 1.8 mi South 19.6 mph 31.1 mph 0.01 in Rain Rain
2:09 AM 44.6 °F 37.8 °F 39.2 °F 81% 29.70 in 3.0 mi SSW 15.0 mph 25.3 mph 0.03 in Rain Light Rain
2:53 AM 43.0 °F 35.4 °F 37.9 °F 82% 29.77 in 2.5 mi SW 16.1 mph 27.6 mph 0.03 in Rain Light Rain
3:08 AM 42.8 °F 37.5 °F 37.4 °F 81% 29.78 in 5.0 mi SW 9.2 mph 20.7 mph 0.01 in Rain Light Rain
3:26 AM 42.8 °F 34.8 °F 37.4 °F 81% 29.79 in 3.0 mi SW 17.3 mph 26.5 mph 0.02 in Rain Light Rain
3:53 AM 42.1 °F 35.7 °F 37.0 °F 82% 29.82 in 5.0 mi SW 11.5 mph 23.0 mph 0.03 in   Haze
4:53 AM 41.0 °F 36.4 °F 37.0 °F 86% 29.85 in 5.0 mi SSW 6.9 mph - 0.00 in   Overcast
5:53 AM 43.0 °F 38.2 °F 37.0 °F 80% 29.88 in 5.0 mi SSW 8.1 mph - N/A   Haze
6:53 AM 42.1 °F - 36.0 °F 79% 29.91 in 6.0 mi Calm Calm - 0.00 in   Haze
7:53 AM 39.0 °F 35.7 °F 35.1 °F 86% 29.93 in 4.0 mi SE 4.6 mph - N/A   Partly Cloudy
8:43 AM 42.8 °F 41.1 °F 37.4 °F 81% 29.96 in 2.0 mi SSW 3.5 mph - 0.01 in Rain Light Rain
8:49 AM 42.8 °F 40.1 °F 35.6 °F 76% 29.96 in 1.8 mi SSW 4.6 mph - 0.01 in Rain Light Rain
8:53 AM 42.1 °F - 36.0 °F 79% 29.96 in 1.5 mi Calm Calm - 0.01 in Rain Light Rain
8:59 AM 42.8 °F - 37.4 °F 81% 29.96 in 3.0 mi Calm Calm - N/A Rain Light Rain
9:18 AM 42.8 °F 38.0 °F 35.6 °F 76% 29.96 in 5.0 mi ESE 8.1 mph - 0.00 in   Haze
9:53 AM 45.0 °F 41.2 °F 37.0 °F 74% 29.98 in 5.0 mi Variable 6.9 mph - 0.00 in   Haze
10:08 AM 44.6 °F - 35.6 °F 71% 29.97 in 5.0 mi Calm Calm - N/A   Haze
10:53 AM 45.0 °F - 36.0 °F 71% 30.00 in 5.0 mi Calm Calm - N/A   Haze
11:05 AM 44.6 °F 43.1 °F 37.4 °F 76% 30.01 in 5.0 mi NW 3.5 mph - N/A   Haze
11:27 AM 42.8 °F 41.1 °F 37.4 °F 81% 30.01 in 1.8 mi NNE 3.5 mph - 0.00 in Rain Light Rain
11:41 AM 42.8 °F 41.1 °F 37.4 °F 81% 30.01 in 2.0 mi North 3.5 mph - 0.01 in Rain Light Rain
11:53 AM 43.0 °F 41.3 °F 37.9 °F 82% 30.02 in 3.0 mi Variable 3.5 mph - 0.02 in Rain Light Rain
12:28 PM 44.6 °F 43.1 °F 39.2 °F 81% 30.01 in 5.0 mi South 3.5 mph - 0.00 in   Haze
12:53 PM 46.0 °F - 37.9 °F 73% 30.02 in 5.0 mi Calm Calm - 0.00 in   Haze
1:53 PM 45.0 °F 42.6 °F 39.0 °F 80% 30.03 in 3.0 mi North 4.6 mph - 0.00 in Rain Light Rain
2:02 PM 44.6 °F 42.2 °F 39.2 °F 81% 30.03 in 1.8 mi NNE 4.6 mph - 0.00 in Rain Light Rain
2:16 PM 44.6 °F 41.4 °F 39.2 °F 81% 30.03 in 3.0 mi North 5.8 mph - 0.01 in Rain Light Rain
2:53 PM 46.0 °F 43.9 °F 41.0 °F 83% 30.04 in 4.0 mi NNE 4.6 mph - 0.01 in Rain Light Rain
3:18 PM 44.6 °F 41.4 °F 37.4 °F 76% 30.05 in 5.0 mi ESE 5.8 mph - 0.00 in   Haze
3:53 PM 44.1 °F - 37.0 °F 76% 30.06 in 5.0 mi Calm Calm - 0.00 in   Haze
4:53 PM 44.1 °F - 37.9 °F 79% 30.07 in 5.0 mi Calm Calm - N/A   Haze
5:53 PM 39.0 °F - 35.1 °F 86% 30.10 in 3.0 mi Calm Calm - N/A   Clear
6:16 PM 37.4 °F - 33.8 °F 87% 30.10 in 1.8 mi Calm Calm - N/A   Clear
6:19 PM 37.4 °F - 33.8 °F 87% 30.10 in 1.0 mi Calm Calm - N/A   Mist
6:27 PM 37.4 °F - 33.8 °F 87% 30.10 in 0.8 mi Calm Calm - N/A   Mist
6:33 PM 37.4 °F - 33.8 °F 87% 30.11 in 1.0 mi Calm Calm - N/A   Clear
6:45 PM 37.4 °F - 33.8 °F 87% 30.11 in 1.0 mi Calm Calm - N/A   Mist
6:53 PM 36.0 °F - 33.1 °F 89% 30.12 in 1.0 mi Calm Calm - N/A   Mist
7:02 PM 35.6 °F 32.8 °F 32.0 °F 87% 30.12 in 0.8 mi North 3.5 mph - N/A   Mist
7:06 PM 37.4 °F - 33.8 °F 87% 30.12 in 1.2 mi Calm Calm - N/A   Partly Cloudy
7:09 PM 37.4 °F - 33.8 °F 87% 30.13 in 2.0 mi Calm Calm - N/A   Partly Cloudy
7:17 PM 37.4 °F - 33.8 °F 87% 30.13 in 5.0 mi Calm Calm - N/A   Partly Cloudy
7:53 PM 35.1 °F - 30.9 °F 85% 30.15 in 3.0 mi Calm Calm - N/A   Partly Cloudy
8:01 PM 35.6 °F - 32.0 °F 87% 30.15 in 2.0 mi Calm Calm - N/A   Clear
8:11 PM 35.6 °F - 32.0 °F 87% 30.15 in 5.0 mi Calm Calm - N/A   Clear
8:41 PM 35.6 °F - 32.0 °F 87% 30.16 in 2.5 mi Calm Calm - N/A   Partly Cloudy
8:46 PM 35.6 °F - 32.0 °F 87% 30.17 in 1.2 mi Calm Calm - N/A   Partly Cloudy
8:49 PM 35.6 °F - 32.0 °F 87% 30.17 in 0.8 mi Calm Calm - N/A   Mist
8:53 PM 35.1 °F - 32.0 °F 89% 30.17 in 1.0 mi Calm Calm - N/A   Mist
8:59 PM 35.6 °F 32.8 °F 30.2 °F 81% 30.17 in 2.5 mi East 3.5 mph - N/A   Partly Cloudy
9:06 PM 35.6 °F - 32.0 °F 87% 30.17 in 5.0 mi Calm Calm - N/A   Scattered Clouds
9:13 PM 33.8 °F 30.8 °F 30.2 °F 87% 30.18 in 1.8 mi NNE 3.5 mph - N/A   Partly Cloudy
9:19 PM 33.8 °F - 30.2 °F 87% 30.18 in 3.0 mi Calm Calm - N/A   Partly Cloudy
9:38 PM 33.8 °F - 30.2 °F 87% 30.19 in 2.0 mi Calm Calm - N/A   Partly Cloudy
9:47 PM 33.8 °F 30.8 °F 30.2 °F 87% 30.19 in 1.2 mi ENE 3.5 mph - N/A   Mostly Cloudy
9:53 PM 33.1 °F - 30.0 °F 89% 30.19 in 1.0 mi Calm Calm - N/A   Mist
10:07 PM 33.8 °F - 30.2 °F 87% 30.19 in 0.5 mi Calm Calm - N/A Fog Fog
10:53 PM 32.0 °F - 28.9 °F 88% 30.20 in 0.2 mi Calm Calm - N/A Fog Fog
11:47 PM 32.0 °F - 28.4 °F 87% 30.21 in 0.5 mi Calm Calm - N/A Fog Fog
11:53 PM 30.9 °F - 28.0 °F 89% 30.22 in 1.2 mi Calm Calm - N/A   Mostly Cloudy